SAS1817 ESSA-EKCH

Flight info

Callsign SAS1817
Flight time 0h 54m
Altitude 36000
Route PETEV2C PETEV N872 ELPAX DCT TOKSI N872 ERNOV ERNOV3A
Aircraft A320/M-SDE3FGHIRWY/LB1

Departure

Time 2026-04-26 17:54
Airport Stockholm-Arlanda Airport (ESSA)

Arrival

Time 2026-04-26 18:48
Airport Copenhagen Kastrup Airport (EKCH)
Time Latitude Longitude Altitude Speed Heading
2026-04-26 17:11 59.65464 17.93763 112 ft 0 kts 255°
2026-04-26 17:16 59.65464 17.93764 112 ft 0 kts 255°
2026-04-26 17:24 59.65464 17.93765 112 ft 0 kts 255°
2026-04-26 17:31 59.65467 17.93790 112 ft 2 kts 255°
2026-04-26 17:31 59.65471 17.93822 112 ft 2 kts 255°
2026-04-26 17:31 59.65476 17.93854 112 ft 2 kts 255°
2026-04-26 17:32 59.65477 17.93886 112 ft 2 kts 310°
2026-04-26 17:32 59.65470 17.93899 113 ft 0 kts 347°
2026-04-26 17:33 59.65493 17.93893 113 ft 11 kts 354°
2026-04-26 17:33 59.65586 17.93777 113 ft 19 kts 278°
2026-04-26 17:34 59.65521 17.93230 112 ft 22 kts 256°
2026-04-26 17:34 59.65480 17.92930 112 ft 23 kts 250°
2026-04-26 17:34 59.65420 17.92674 110 ft 14 kts 235°
2026-04-26 17:34 59.65361 17.92545 111 ft 14 kts 222°
2026-04-26 17:35 59.65255 17.92419 111 ft 21 kts 202°
2026-04-26 17:35 59.65118 17.92353 112 ft 20 kts 191°
2026-04-26 17:35 59.64990 17.92308 112 ft 18 kts 190°
2026-04-26 17:35 59.64829 17.92247 112 ft 27 kts 191°
2026-04-26 17:36 59.64639 17.92180 112 ft 28 kts 190°
2026-04-26 17:36 59.64458 17.92104 113 ft 21 kts 206°
2026-04-26 17:36 59.64352 17.91917 113 ft 21 kts 201°
2026-04-26 17:36 59.64212 17.91859 114 ft 18 kts 190°
2026-04-26 17:37 59.64117 17.91825 114 ft 13 kts 189°
2026-04-26 17:37 59.64105 17.91821 114 ft 0 kts 189°
2026-04-26 17:39 59.64081 17.91812 114 ft 4 kts 190°
2026-04-26 17:39 59.64075 17.91810 114 ft 4 kts 190°
2026-04-26 17:39 59.64038 17.91796 113 ft 6 kts 191°
2026-04-26 17:40 59.64015 17.91788 113 ft 0 kts 190°
2026-04-26 17:40 59.64015 17.91787 113 ft 0 kts 190°
2026-04-26 17:40 59.64014 17.91787 113 ft 0 kts 190°
2026-04-26 17:43 59.64008 17.91785 113 ft 5 kts 190°
2026-04-26 17:43 59.63956 17.91766 111 ft 8 kts 190°
2026-04-26 17:43 59.63927 17.91755 110 ft 1 kts 190°
2026-04-26 17:43 59.63919 17.91752 110 ft 2 kts 190°
2026-04-26 17:44 59.63916 17.91751 110 ft 0 kts 190°
2026-04-26 17:44 59.63915 17.91751 110 ft 0 kts 190°
2026-04-26 17:47 59.63869 17.91725 109 ft 10 kts 202°
2026-04-26 17:47 59.63849 17.91706 108 ft 0 kts 207°
2026-04-26 17:48 59.63848 17.91705 108 ft 1 kts 207°
2026-04-26 17:48 59.63817 17.91663 107 ft 2 kts 218°
2026-04-26 17:49 59.63816 17.91663 107 ft 0 kts 218°
2026-04-26 17:49 59.63811 17.91655 107 ft 4 kts 218°
2026-04-26 17:49 59.63786 17.91615 107 ft 5 kts 220°
2026-04-26 17:50 59.63775 17.91596 107 ft 0 kts 220°
2026-04-26 17:51 59.63763 17.91576 106 ft 7 kts 220°
2026-04-26 17:51 59.63731 17.91432 109 ft 14 kts 274°
2026-04-26 17:51 59.63800 17.91349 110 ft 14 kts 10°
2026-04-26 17:52 59.63807 17.91352 109 ft 0 kts 10°
2026-04-26 17:52 59.63824 17.91358 109 ft 14 kts 11°
2026-04-26 17:53 59.64007 17.91424 109 ft 65 kts 10°
2026-04-26 17:53 59.64672 17.91665 110 ft 126 kts 10°
2026-04-26 17:53 59.65676 17.92042 281 ft 156 kts 11°
2026-04-26 17:54 59.67797 17.92914 1745 ft 156 kts
2026-04-26 17:54 59.68868 17.92679 2233 ft 166 kts 328°
2026-04-26 17:54 59.69625 17.90795 2568 ft 193 kts 290°
2026-04-26 17:54 59.69643 17.88070 3342 ft 203 kts 267°
2026-04-26 17:55 59.69425 17.85291 4194 ft 205 kts 266°
2026-04-26 17:55 59.69192 17.82460 4835 ft 212 kts 266°
2026-04-26 17:55 59.68957 17.79590 4984 ft 211 kts 266°
2026-04-26 17:55 59.68636 17.76744 5013 ft 223 kts 257°
2026-04-26 17:56 59.68125 17.73589 5014 ft 252 kts 257°
2026-04-26 17:56 59.66799 17.67014 5018 ft 265 kts 237°
2026-04-26 17:57 59.63611 17.63221 5014 ft 278 kts 200°
2026-04-26 17:57 59.61761 17.62093 5015 ft 278 kts 200°
2026-04-26 17:57 59.59912 17.60972 5015 ft 278 kts 200°
2026-04-26 17:57 59.58059 17.59850 5015 ft 278 kts 200°
2026-04-26 17:58 59.52550 17.56065 6761 ft 280 kts 213°
2026-04-26 17:59 59.49493 17.51407 8615 ft 279 kts 227°
2026-04-26 17:59 59.48044 17.48828 9554 ft 282 kts 227°
2026-04-26 17:59 59.46576 17.46235 10414 ft 286 kts 227°
2026-04-26 17:59 59.45101 17.43637 11162 ft 291 kts 228°
2026-04-26 18:00 59.43540 17.40878 11496 ft 313 kts 228°
2026-04-26 18:00 59.41860 17.37901 11741 ft 337 kts 228°
2026-04-26 18:00 59.40062 17.34721 11914 ft 360 kts 227°
2026-04-26 18:00 59.38140 17.31345 12141 ft 379 kts 227°
2026-04-26 18:01 59.36141 17.27873 12707 ft 387 kts 227°
2026-04-26 18:01 59.34103 17.24353 13329 ft 394 kts 227°
2026-04-26 18:01 59.32030 17.20768 13911 ft 401 kts 228°
2026-04-26 18:01 59.29930 17.17127 14451 ft 406 kts 228°
2026-04-26 18:02 59.27804 17.13440 15035 ft 410 kts 228°
2026-04-26 18:02 59.26361 17.10940 15430 ft 412 kts 228°
2026-04-26 18:02 59.23500 17.05992 16177 ft 417 kts 229°
2026-04-26 18:02 59.21320 17.02228 16765 ft 420 kts 229°
2026-04-26 18:03 59.19114 16.98463 17330 ft 424 kts 228°
2026-04-26 18:03 59.16852 16.94721 17875 ft 428 kts 227°
2026-04-26 18:03 59.14549 16.90992 18413 ft 432 kts 227°
2026-04-26 18:03 59.12217 16.87259 18878 ft 435 kts 227°
2026-04-26 18:04 59.09869 16.83508 19343 ft 438 kts 227°
2026-04-26 18:04 59.07509 16.79735 19759 ft 440 kts 227°
2026-04-26 18:04 59.05140 16.75945 20258 ft 442 kts 227°
2026-04-26 18:05 59.00380 16.68300 21184 ft 446 kts 227°
2026-04-26 18:05 58.97986 16.64450 21628 ft 448 kts 227°
2026-04-26 18:05 58.95577 16.60581 22052 ft 451 kts 227°
2026-04-26 18:05 58.93156 16.56700 22476 ft 453 kts 227°
2026-04-26 18:06 58.90718 16.52800 22886 ft 456 kts 227°
2026-04-26 18:06 58.88268 16.48885 23293 ft 458 kts 227°
2026-04-26 18:06 58.85799 16.44950 23700 ft 461 kts 227°
2026-04-26 18:06 58.83317 16.41011 23996 ft 463 kts 227°
2026-04-26 18:07 58.80821 16.37066 24366 ft 464 kts 227°
2026-04-26 18:07 58.78317 16.33120 24699 ft 466 kts 227°
2026-04-26 18:07 58.75800 16.29158 25005 ft 468 kts 227°
2026-04-26 18:07 58.74126 16.26521 25202 ft 470 kts 227°
2026-04-26 18:08 58.70730 16.21180 25601 ft 472 kts 227°
2026-04-26 18:08 58.68180 16.17179 25888 ft 475 kts 227°
2026-04-26 18:08 58.65615 16.13164 26168 ft 477 kts 227°
2026-04-26 18:08 58.63036 16.09135 26438 ft 479 kts 227°
2026-04-26 18:09 58.60444 16.05093 26720 ft 481 kts 227°
2026-04-26 18:09 58.57843 16.01047 26966 ft 482 kts 227°
2026-04-26 18:09 58.55232 15.96989 27264 ft 484 kts 227°
2026-04-26 18:09 58.52610 15.92924 27537 ft 486 kts 227°
2026-04-26 18:10 58.49976 15.88851 27797 ft 488 kts 227°
2026-04-26 18:10 58.47338 15.84781 28094 ft 488 kts 227°
2026-04-26 18:10 58.44697 15.80717 28166 ft 487 kts 227°
2026-04-26 18:10 58.42055 15.76656 28357 ft 488 kts 227°
2026-04-26 18:11 58.39414 15.72610 28764 ft 487 kts 227°
2026-04-26 18:11 58.36776 15.68580 29129 ft 485 kts 226°
2026-04-26 18:11 58.34150 15.64575 29583 ft 482 kts 226°
2026-04-26 18:11 58.31541 15.60601 30097 ft 479 kts 226°
2026-04-26 18:12 58.28981 15.56703 30474 ft 477 kts 226°
2026-04-26 18:12 58.26392 15.52765 30810 ft 476 kts 226°
2026-04-26 18:12 58.23808 15.48839 31138 ft 475 kts 226°
2026-04-26 18:12 58.21226 15.44920 31468 ft 475 kts 226°
2026-04-26 18:13 58.18648 15.41014 31781 ft 474 kts 226°
2026-04-26 18:13 58.16071 15.37125 32113 ft 473 kts 226°
2026-04-26 18:13 58.13493 15.33254 32434 ft 473 kts 225°
2026-04-26 18:13 58.11753 15.30646 32650 ft 472 kts 225°
2026-04-26 18:14 58.08346 15.25546 33093 ft 470 kts 225°
2026-04-26 18:14 58.05787 15.21717 33459 ft 469 kts 225°
2026-04-26 18:14 58.03235 15.17903 33786 ft 468 kts 225°
2026-04-26 18:14 58.00685 15.14100 34101 ft 467 kts 225°
2026-04-26 18:15 57.98136 15.10302 34372 ft 467 kts 225°
2026-04-26 18:15 57.95591 15.06512 34634 ft 466 kts 225°
2026-04-26 18:15 57.93044 15.02730 34895 ft 466 kts 225°
2026-04-26 18:15 57.90497 14.98956 35157 ft 466 kts 225°
2026-04-26 18:16 57.87946 14.95187 35407 ft 466 kts 225°
2026-04-26 18:16 57.82844 14.87671 35890 ft 466 kts 225°
2026-04-26 18:16 57.80323 14.83965 36115 ft 466 kts 225°
2026-04-26 18:17 57.75171 14.76426 36203 ft 467 kts 224°
2026-04-26 18:17 57.70049 14.68963 36206 ft 467 kts 224°
2026-04-26 18:18 57.64925 14.61525 36209 ft 466 kts 224°
2026-04-26 18:18 57.59858 14.54168 36222 ft 464 kts 224°
2026-04-26 18:19 57.54724 14.46757 36226 ft 464 kts 224°
2026-04-26 18:19 57.49651 14.39475 36230 ft 464 kts 224°
2026-04-26 18:20 57.44541 14.32160 36213 ft 464 kts 224°
2026-04-26 18:20 57.40262 14.26040 36233 ft 464 kts 224°
2026-04-26 18:21 57.34321 14.17587 36145 ft 462 kts 223°
2026-04-26 18:21 57.31773 14.13975 35478 ft 461 kts 224°
2026-04-26 18:21 57.29224 14.10367 34754 ft 462 kts 224°
2026-04-26 18:22 57.26672 14.06758 33998 ft 462 kts 224°
2026-04-26 18:22 57.24123 14.03155 33155 ft 462 kts 224°
2026-04-26 18:22 57.21571 13.99547 32285 ft 463 kts 224°
2026-04-26 18:22 57.19007 13.95935 31392 ft 464 kts 224°
2026-04-26 18:23 57.16435 13.92325 30493 ft 465 kts 224°
2026-04-26 18:23 57.13857 13.88715 29419 ft 467 kts 223°
2026-04-26 18:23 57.11261 13.85086 28284 ft 469 kts 223°
2026-04-26 18:23 57.08656 13.81451 27131 ft 472 kts 223°
2026-04-26 18:24 57.06028 13.77792 25950 ft 475 kts 223°
2026-04-26 18:24 57.03382 13.74115 24744 ft 479 kts 223°
2026-04-26 18:24 57.00718 13.70419 23507 ft 482 kts 223°
2026-04-26 18:24 56.98035 13.66698 22203 ft 484 kts 223°
2026-04-26 18:25 56.95360 13.63000 21283 ft 479 kts 222°
2026-04-26 18:25 56.92714 13.59358 20488 ft 471 kts 222°
2026-04-26 18:25 56.90110 13.55778 19646 ft 465 kts 222°
2026-04-26 18:25 56.87538 13.52245 18872 ft 459 kts 222°
2026-04-26 18:26 56.85015 13.48784 18502 ft 445 kts 222°
2026-04-26 18:26 56.82588 13.45469 18354 ft 426 kts 222°
2026-04-26 18:26 56.80246 13.42276 17942 ft 415 kts 222°
2026-04-26 18:26 56.77949 13.39138 17334 ft 410 kts 222°
2026-04-26 18:27 56.75683 13.36040 16697 ft 406 kts 222°
2026-04-26 18:27 56.73433 13.32960 16072 ft 402 kts 222°
2026-04-26 18:27 56.71206 13.29917 15464 ft 399 kts 222°
2026-04-26 18:27 56.68988 13.26896 14873 ft 396 kts 222°
2026-04-26 18:28 56.66791 13.23910 14285 ft 393 kts 222°
2026-04-26 18:28 56.64610 13.20945 13708 ft 390 kts 222°
2026-04-26 18:28 56.62450 13.18011 13099 ft 386 kts 221°
2026-04-26 18:28 56.60307 13.15114 12490 ft 382 kts 221°
2026-04-26 18:29 56.58187 13.12256 11884 ft 379 kts 221°
2026-04-26 18:29 56.56080 13.09421 11278 ft 375 kts 221°
2026-04-26 18:29 56.53990 13.06611 10689 ft 372 kts 221°
2026-04-26 18:29 56.51916 13.03827 10341 ft 370 kts 221°
2026-04-26 18:30 56.49848 13.01050 10253 ft 370 kts 221°
2026-04-26 18:30 56.47775 12.98267 10279 ft 371 kts 221°
2026-04-26 18:30 56.45701 12.95489 10282 ft 371 kts 220°
2026-04-26 18:30 56.43623 12.92712 10266 ft 371 kts 220°
2026-04-26 18:31 56.41544 12.89947 10274 ft 371 kts 220°
2026-04-26 18:31 56.39461 12.87183 10272 ft 371 kts 220°
2026-04-26 18:31 56.37383 12.84424 10275 ft 371 kts 220°
2026-04-26 18:31 56.35312 12.81675 10051 ft 367 kts 220°
2026-04-26 18:32 56.33264 12.78964 9379 ft 363 kts 220°
2026-04-26 18:32 56.31237 12.76290 8740 ft 359 kts 219°
2026-04-26 18:32 56.29027 12.74197 8113 ft 361 kts 202°
2026-04-26 18:32 56.26621 12.72985 7669 ft 352 kts 198°
2026-04-26 18:33 56.24354 12.71928 7524 ft 322 kts 198°
2026-04-26 18:33 56.22288 12.70987 7365 ft 303 kts 198°
2026-04-26 18:33 56.20294 12.70074 7271 ft 289 kts 199°
2026-04-26 18:33 56.18374 12.69189 7272 ft 283 kts 199°
2026-04-26 18:34 56.16475 12.68306 7278 ft 282 kts 199°
2026-04-26 18:34 56.14580 12.67414 7281 ft 281 kts 199°
2026-04-26 18:34 56.12693 12.66474 7283 ft 281 kts 200°
2026-04-26 18:34 56.10815 12.65509 7283 ft 281 kts 200°
2026-04-26 18:35 56.08938 12.64534 7284 ft 281 kts 201°
2026-04-26 18:35 56.07065 12.63563 7239 ft 280 kts 200°
2026-04-26 18:35 56.05200 12.62605 6864 ft 278 kts 200°
2026-04-26 18:35 56.03351 12.61663 6482 ft 275 kts 200°
2026-04-26 18:36 56.01516 12.60735 6091 ft 273 kts 200°
2026-04-26 18:36 55.99699 12.59814 5693 ft 270 kts 200°
2026-04-26 18:36 55.97899 12.58898 5296 ft 268 kts 200°
2026-04-26 18:36 55.96115 12.57994 5028 ft 264 kts 200°
2026-04-26 18:37 55.94343 12.57103 5013 ft 265 kts 200°
2026-04-26 18:37 55.92564 12.56210 5011 ft 266 kts 200°
2026-04-26 18:37 55.90782 12.55312 5016 ft 266 kts 200°
2026-04-26 18:37 55.89001 12.54416 5016 ft 266 kts 200°
2026-04-26 18:38 55.87218 12.53519 5016 ft 266 kts 200°
2026-04-26 18:38 55.85436 12.52635 5015 ft 266 kts 199°
2026-04-26 18:38 55.83652 12.51760 5015 ft 266 kts 199°
2026-04-26 18:38 55.81868 12.50886 5014 ft 266 kts 199°
2026-04-26 18:39 55.80081 12.50012 5012 ft 266 kts 199°
2026-04-26 18:39 55.78296 12.49138 5013 ft 266 kts 199°
2026-04-26 18:39 55.76513 12.48264 5012 ft 266 kts 199°
2026-04-26 18:39 55.74731 12.47389 5013 ft 266 kts 199°
2026-04-26 18:40 55.72946 12.46511 5014 ft 266 kts 199°
2026-04-26 18:40 55.71160 12.45635 5012 ft 266 kts 199°
2026-04-26 18:40 55.69377 12.44763 5010 ft 266 kts 199°
2026-04-26 18:40 55.67605 12.43900 4667 ft 263 kts 199°
2026-04-26 18:41 55.66437 12.43330 4359 ft 263 kts 199°
2026-04-26 18:41 55.64678 12.42454 3920 ft 262 kts 199°
2026-04-26 18:41 55.62367 12.41283 3382 ft 259 kts 199°
2026-04-26 18:41 55.60643 12.40397 3043 ft 256 kts 199°
2026-04-26 18:42 55.58939 12.39510 3008 ft 256 kts 199°
2026-04-26 18:42 55.57228 12.38614 3011 ft 257 kts 199°
2026-04-26 18:42 55.56084 12.38017 2997 ft 248 kts 199°
2026-04-26 18:42 55.54496 12.37196 2864 ft 227 kts 199°
2026-04-26 18:43 55.53040 12.36455 2736 ft 209 kts 199°
2026-04-26 18:43 55.51687 12.35773 2601 ft 195 kts 199°
2026-04-26 18:43 55.50394 12.35579 2442 ft 189 kts 167°
2026-04-26 18:43 55.49265 12.36744 2249 ft 191 kts 137°
2026-04-26 18:44 55.48511 12.38660 2085 ft 192 kts 112°
2026-04-26 18:44 55.48261 12.40963 2006 ft 193 kts 87°
2026-04-26 18:44 55.48551 12.43255 2012 ft 192 kts 63°
2026-04-26 18:44 55.49325 12.45139 2014 ft 190 kts 39°
2026-04-26 18:45 55.50322 12.46667 2015 ft 190 kts 38°
2026-04-26 18:45 55.51321 12.48195 2008 ft 191 kts 38°
2026-04-26 18:45 55.52323 12.49733 1858 ft 190 kts 38°
2026-04-26 18:45 55.53317 12.51260 1628 ft 188 kts 39°
2026-04-26 18:46 55.54277 12.52738 1361 ft 178 kts 38°
2026-04-26 18:46 55.55184 12.54135 1133 ft 167 kts 39°
2026-04-26 18:46 55.56021 12.55423 901 ft 154 kts 39°
2026-04-26 18:46 55.56809 12.56638 685 ft 148 kts 39°
2026-04-26 18:47 55.57569 12.57806 497 ft 142 kts 40°
2026-04-26 18:47 55.58308 12.58919 298 ft 138 kts 41°
2026-04-26 18:47 55.59014 12.60027 113 ft 134 kts 42°
2026-04-26 18:47 55.59702 12.61094 27 ft 123 kts 41°
2026-04-26 18:48 55.60223 12.61898 24 ft 66 kts 41°
2026-04-26 18:48 55.60533 12.62379 30 ft 54 kts 41°
2026-04-26 18:48 55.60796 12.62785 25 ft 47 kts 41°
2026-04-26 18:48 55.61029 12.63148 27 ft 42 kts 41°
2026-04-26 18:49 55.61241 12.63472 27 ft 39 kts 41°
2026-04-26 18:49 55.61441 12.63784 26 ft 38 kts 40°
2026-04-26 18:49 55.61590 12.64010 26 ft 22 kts 39°
2026-04-26 18:49 55.61722 12.64084 27 ft 22 kts 357°
2026-04-26 18:50 55.61876 12.64078 24 ft 21 kts 13°
2026-04-26 18:50 55.62016 12.64189 24 ft 23 kts 24°
2026-04-26 18:50 55.62159 12.64308 23 ft 20 kts 26°
2026-04-26 18:50 55.62279 12.64395 22 ft 19 kts 14°
2026-04-26 18:51 55.62409 12.64457 24 ft 20 kts 14°
2026-04-26 18:51 55.62462 12.64602 24 ft 15 kts 95°
2026-04-26 18:51 55.62552 12.64652 24 ft 16 kts